TimeCDT,TemperatureF,Dew PointF,Humidity,Sea Level PressureIn,VisibilityMPH,Wind Direction,Wind SpeedMPH,Gust SpeedMPH,PrecipitationIn,Events,Conditions,WindDirDegrees,DateUTC
12:56 AM,61.0,57.9,90,30.08,10.0,Calm,Calm,-,N/A,,Mostly Cloudy,0,2013-10-09 05:56:00
1:56 AM,60.1,57.9,93,30.08,10.0,Calm,Calm,-,N/A,,Partly Cloudy,0,2013-10-09 06:56:00
2:56 AM,57.9,57.0,97,30.08,10.0,Calm,Calm,-,N/A,,Clear,0,2013-10-09 07:56:00
3:56 AM,60.1,57.0,90,30.08,10.0,Calm,Calm,-,N/A,,Clear,0,2013-10-09 08:56:00
4:35 AM,60.8,59.0,94,30.06,10.0,ESE,3.5,-,N/A,,Overcast,110,2013-10-09 09:35:00
4:43 AM,60.8,59.0,94,30.06,10.0,ESE,4.6,-,N/A,,Overcast,110,2013-10-09 09:43:00
4:54 AM,62.6,60.8,94,30.06,10.0,East,3.5,-,N/A,,Overcast,100,2013-10-09 09:54:00
4:56 AM,62.1,60.1,93,30.09,10.0,East,3.5,-,N/A,,Overcast,100,2013-10-09 09:56:00
5:52 AM,60.8,59.0,94,30.08,10.0,East,5.8,-,N/A,,Scattered Clouds,100,2013-10-09 10:52:00
5:56 AM,61.0,59.0,93,30.11,10.0,East,3.5,-,N/A,,Scattered Clouds,90,2013-10-09 10:56:00
6:18 AM,60.8,60.8,100,30.08,10.0,East,3.5,-,N/A,,Mostly Cloudy,100,2013-10-09 11:18:00
6:33 AM,62.6,60.8,94,30.09,10.0,East,5.8,-,N/A,,Overcast,100,2013-10-09 11:33:00
6:40 AM,62.6,60.8,94,30.09,10.0,East,6.9,-,N/A,,Overcast,100,2013-10-09 11:40:00
6:56 AM,62.1,60.1,93,30.12,10.0,ESE,5.8,-,N/A,,Overcast,110,2013-10-09 11:56:00
7:54 AM,62.6,60.8,94,30.12,10.0,East,8.1,-,N/A,,Mostly Cloudy,100,2013-10-09 12:54:00
7:56 AM,63.0,60.1,90,30.14,10.0,East,8.1,-,N/A,,Mostly Cloudy,100,2013-10-09 12:56:00
8:15 AM,62.6,60.8,94,30.12,10.0,ESE,8.1,-,N/A,,Overcast,110,2013-10-09 13:15:00
8:56 AM,64.0,61.0,90,30.16,10.0,ESE,9.2,-,N/A,,Overcast,110,2013-10-09 13:56:00
9:56 AM,64.9,61.0,87,30.18,10.0,East,9.2,-,N/A,,Overcast,100,2013-10-09 14:56:00
10:56 AM,64.9,60.1,84,30.19,10.0,East,8.1,-,N/A,,Overcast,100,2013-10-09 15:56:00
11:56 AM,66.9,61.0,81,30.19,10.0,East,6.9,-,N/A,,Overcast,80,2013-10-09 16:56:00
12:56 PM,69.1,61.0,75,30.17,10.0,East,6.9,-,N/A,,Overcast,80,2013-10-09 17:56:00
1:56 PM,71.1,62.1,73,30.15,10.0,Calm,Calm,-,N/A,,Overcast,0,2013-10-09 18:56:00
2:03 PM,71.6,62.6,73,30.12,10.0,ESE,4.6,-,N/A,,Overcast,110,2013-10-09 19:03:00
2:56 PM,73.9,64.0,71,30.13,10.0,Variable,3.5,-,N/A,,Overcast,0,2013-10-09 19:56:00
3:03 PM,73.4,62.6,69,30.10,10.0,NE,4.6,-,N/A,,Mostly Cloudy,40,2013-10-09 20:03:00
3:19 PM,73.4,62.6,69,30.10,10.0,Calm,Calm,-,N/A,,Mostly Cloudy,0,2013-10-09 20:19:00
3:56 PM,73.9,64.0,71,30.13,10.0,ENE,4.6,-,N/A,,Overcast,60,2013-10-09 20:56:00
4:23 PM,73.4,64.4,73,30.10,10.0,ENE,3.5,-,N/A,,Overcast,60,2013-10-09 21:23:00
4:56 PM,73.0,64.0,73,30.12,10.0,ENE,3.5,-,N/A,,Overcast,70,2013-10-09 21:56:00
5:56 PM,72.0,64.9,78,30.11,10.0,Calm,Calm,-,N/A,,Overcast,0,2013-10-09 22:56:00
6:56 PM,70.0,66.0,87,30.12,10.0,Calm,Calm,-,N/A,,Overcast,0,2013-10-09 23:56:00
7:56 PM,68.0,64.9,90,30.12,10.0,Calm,Calm,-,N/A,,Overcast,0,2013-10-10 00:56:00
8:56 PM,68.0,64.9,90,30.13,9.0,Calm,Calm,-,N/A,,Overcast,0,2013-10-10 01:56:00
9:56 PM,64.9,64.0,97,30.14,7.0,Calm,Calm,-,N/A,,Scattered Clouds,0,2013-10-10 02:56:00
10:56 PM,66.0,64.0,93,30.14,6.0,Calm,Calm,-,N/A,,Mostly Cloudy,0,2013-10-10 03:56:00
11:20 PM,64.4,62.6,94,30.10,2.5,Calm,Calm,-,N/A,,Mostly Cloudy,0,2013-10-10 04:20:00
11:36 PM,64.4,62.6,94,30.10,6.0,Calm,Calm,-,N/A,,Mostly Cloudy,0,2013-10-10 04:36:00
11:56 PM,64.0,62.1,93,30.13,0.2,Calm,Calm,-,N/A,Fog,Fog,0,2013-10-10 04:56:00